When you browse on this site, cookies collect data to enhance your experience and personalize the content and advertising you see.
Visit our Privacy Policy to learn more. By continuing to use the site, you agree to this use of cookies and data.
  • In Romania
  • List of Countries
  • For 7 days
  • Water Temperature
  • Satellite Maps
  • Weather Map
  • Weather Widgets
  • user-avatar
    Login

    Hourly Weather Hudobino

    Today, 23 July, Tuesday

    Time Temperature Precipitation Wind Pressure Humidity
    00:00 +16°C° 0.1 mm 2 mps 741 mmHg 94%
    01:00 +16°C° 0.1 mm 2 mps 741 mmHg 94%
    02:00 +15°C° 0 mm 1 mps 741 mmHg 97%
    03:00 +15°C° 0.3 mm 1 mps 741 mmHg 96%
    04:00 +16°C° 0.3 mm 1 mps 741 mmHg 96%
    05:00 +16°C° 0.3 mm 1 mps 740 mmHg 95%
    06:00 +18°C° 0.2 mm 1 mps 740 mmHg 92%
    07:00 +19°C° 0.2 mm 1 mps 741 mmHg 89%
    08:00 +20°C° 0.2 mm 1 mps 741 mmHg 86%
    09:00 +20°C° 0.5 mm 1 mps 741 mmHg 82%
    10:00 +21°C° 0.5 mm 1 mps 741 mmHg 79%
    11:00 +22°C° 0.5 mm 1 mps 741 mmHg 75%
    12:00 +21°C° 0.3 mm 2 mps 741 mmHg 75%
    13:00 +23°C° 0.3 mm 2 mps 741 mmHg 74%
    14:00 +23°C° 0.3 mm 2 mps 741 mmHg 73%
    15:00 +23°C° 0.2 mm 2 mps 741 mmHg 72%
    16:00 +23°C° 0.2 mm 2 mps 741 mmHg 72%
    17:00 +22°C° 0.2 mm 3 mps 741 mmHg 71%
    18:00 +21°C° 0.1 mm 2 mps 741 mmHg 76%
    19:00 +19°C° 0.1 mm 2 mps 741 mmHg 82%
    20:00 +18°C° 0.1 mm 2 mps 741 mmHg 87%
    21:00 +17°C° 0 mm 2 mps 741 mmHg 89%
    22:00 +16°C° 0 mm 2 mps 741 mmHg 90%
    23:00 +15°C° 0 mm 2 mps 741 mmHg 92%

    Tomorrow, 24 July, Wednesday

    Time Temperature Precipitation Wind Pressure Humidity
    00:00 +15°C° 0 mm 2 mps 741 mmHg 92%
    01:00 +14°C° 0 mm 2 mps 741 mmHg 92%
    02:00 +14°C° 0 mm 2 mps 741 mmHg 92%
    03:00 +14°C° 0 mm 2 mps 741 mmHg 91%
    04:00 +14°C° 0 mm 2 mps 741 mmHg 91%
    05:00 +14°C° 0 mm 2 mps 741 mmHg 90%
    06:00 +16°C° 0 mm 2 mps 742 mmHg 82%
    07:00 +17°C° 0 mm 2 mps 742 mmHg 74%
    08:00 +19°C° 0 mm 3 mps 742 mmHg 66%
    09:00 +20°C° 0 mm 3 mps 742 mmHg 61%
    10:00 +21°C° 0 mm 3 mps 743 mmHg 55%
    11:00 +23°C° 0 mm 4 mps 743 mmHg 49%
    12:00 +23°C° 0 mm 4 mps 743 mmHg 49%
    13:00 +23°C° 0 mm 4 mps 743 mmHg 48%
    14:00 +25°C° 0 mm 5 mps 743 mmHg 48%
    15:00 +23°C° 0 mm 5 mps 743 mmHg 50%
    16:00 +23°C° 0 mm 5 mps 743 mmHg 52%
    17:00 +22°C° 0 mm 5 mps 743 mmHg 54%
    18:00 +20°C° 0 mm 4 mps 743 mmHg 63%
    19:00 +18°C° 0 mm 3 mps 743 mmHg 72%
    20:00 +17°C° 0 mm 2 mps 742 mmHg 81%
    21:00 +16°C° 0 mm 1 mps 743 mmHg 84%
    22:00 +15°C° 0 mm 1 mps 743 mmHg 87%
    23:00 +14°C° 0 mm 1 mps 743 mmHg 89%

    Day after tomorrow, 25 July, Thursday

    Time Temperature Precipitation Wind Pressure Humidity
    00:00 +15°C° 0 mm 1 mps 743 mmHg 87%
    01:00 +15°C° 0 mm 1 mps 743 mmHg 85%
    02:00 +15°C° 0 mm 1 mps 743 mmHg 82%
    03:00 +15°C° 0 mm 1 mps 743 mmHg 85%
    04:00 +15°C° 0 mm 1 mps 743 mmHg 87%
    05:00 +15°C° 0 mm 1 mps 743 mmHg 89%
    06:00 +16°C° 0 mm 2 mps 743 mmHg 83%
    07:00 +17°C° 0 mm 2 mps 743 mmHg 77%
    08:00 +18°C° 0 mm 2 mps 743 mmHg 71%
    09:00 +19°C° 0.1 mm 2 mps 743 mmHg 68%
    10:00 +20°C° 0.1 mm 3 mps 743 mmHg 65%
    11:00 +21°C° 0.1 mm 3 mps 743 mmHg 62%
    12:00 +21°C° 0.3 mm 3 mps 743 mmHg 64%
    13:00 +21°C° 0.3 mm 3 mps 743 mmHg 67%
    14:00 +21°C° 0.3 mm 3 mps 743 mmHg 69%
    15:00 +20°C° 0.4 mm 3 mps 743 mmHg 76%
    16:00 +19°C° 0.4 mm 3 mps 742 mmHg 82%
    17:00 +18°C° 0.4 mm 2 mps 742 mmHg 89%
    18:00 +17°C° 0 mm 2 mps 743 mmHg 91%
    19:00 +16°C° 0 mm 2 mps 743 mmHg 94%
    20:00 +15°C° 0 mm 2 mps 743 mmHg 97%
    21:00 +15°C° 0 mm 2 mps 743 mmHg 97%
    22:00 +14°C° 0 mm 2 mps 743 mmHg 98%
    23:00 +14°C° 0 mm 2 mps 743 mmHg 98%

    26 July, Friday

    Time Temperature Precipitation Wind Pressure Humidity
    00:00 +14°C° 0 mm 2 mps 743 mmHg 98%
    01:00 +14°C° 0 mm 2 mps 744 mmHg 98%
    02:00 +14°C° 0 mm 2 mps 744 mmHg 98%
    03:00 +15°C° 0 mm 2 mps 744 mmHg 98%
    04:00 +15°C° 0 mm 2 mps 744 mmHg 98%
    05:00 +14°C° 0 mm 3 mps 744 mmHg 98%
    06:00 +16°C° 0 mm 3 mps 745 mmHg 95%
    07:00 +18°C° 0 mm 3 mps 745 mmHg 92%
    08:00 +19°C° 0 mm 3 mps 745 mmHg 88%
    09:00 +20°C° 0 mm 3 mps 745 mmHg 81%
    10:00 +22°C° 0 mm 3 mps 745 mmHg 74%
    11:00 +24°C° 0 mm 3 mps 745 mmHg 66%
    12:00 +25°C° 0.4 mm 3 mps 745 mmHg 68%
    13:00 +25°C° 0.4 mm 3 mps 745 mmHg 70%
    14:00 +26°C° 0.4 mm 3 mps 745 mmHg 71%
    15:00 +25°C° 0.5 mm 3 mps 745 mmHg 74%
    16:00 +25°C° 0.5 mm 3 mps 744 mmHg 77%
    17:00 +25°C° 0.5 mm 3 mps 744 mmHg 80%
    18:00 +24°C° 0.2 mm 3 mps 744 mmHg 84%
    19:00 +21°C° 0.2 mm 2 mps 744 mmHg 88%
    20:00 +20°C° 0.2 mm 2 mps 744 mmHg 93%
    21:00 +20°C° 0 mm 2 mps 744 mmHg 94%
    22:00 +19°C° 0 mm 2 mps 744 mmHg 95%
    23:00 +18°C° 0 mm 2 mps 744 mmHg 97%

    27 July, Saturday

    Time Temperature Precipitation Wind Pressure Humidity
    00:00 +18°C° 0 mm 2 mps 744 mmHg 97%
    01:00 +18°C° 0 mm 2 mps 744 mmHg 97%
    02:00 +17°C° 0 mm 2 mps 744 mmHg 97%
    03:00 +17°C° 0 mm 2 mps 744 mmHg 97%
    04:00 +17°C° 0 mm 2 mps 744 mmHg 97%
    05:00 +17°C° 0 mm 2 mps 744 mmHg 97%
    06:00 +19°C° 0 mm 3 mps 744 mmHg 91%
    07:00 +21°C° 0 mm 3 mps 744 mmHg 85%
    08:00 +22°C° 0 mm 3 mps 744 mmHg 79%
    09:00 +25°C° 0 mm 4 mps 744 mmHg 70%
    10:00 +27°C° 0 mm 4 mps 744 mmHg 60%
    11:00 +28°C° 0 mm 4 mps 744 mmHg 51%
    12:00 +29°C° 0 mm 4 mps 743 mmHg 49%
    13:00 +29°C° 0 mm 4 mps 743 mmHg 47%
    14:00 +29°C° 0 mm 4 mps 743 mmHg 46%
    15:00 +28°C° 0 mm 4 mps 742 mmHg 52%
    16:00 +27°C° 0 mm 3 mps 742 mmHg 58%
    17:00 +26°C° 0 mm 3 mps 742 mmHg 64%
    18:00 +25°C° 0 mm 3 mps 742 mmHg 70%
    19:00 +23°C° 0 mm 2 mps 742 mmHg 77%
    20:00 +21°C° 0 mm 2 mps 742 mmHg 83%
    21:00 +20°C° 0 mm 2 mps 742 mmHg 85%
    22:00 +19°C° 0 mm 2 mps 742 mmHg 87%
    23:00 +19°C° 0 mm 2 mps 742 mmHg 89%

    28 July, Sunday

    Time Temperature Precipitation Wind Pressure Humidity
    00:00 +18°C° 0 mm 2 mps 742 mmHg 92%
    01:00 +18°C° 0 mm 2 mps 741 mmHg 94%
    02:00 +18°C° 0 mm 2 mps 741 mmHg 96%
    03:00 +18°C° 0 mm 2 mps 741 mmHg 95%
    04:00 +17°C° 0 mm 3 mps 741 mmHg 94%
    05:00 +17°C° 0 mm 3 mps 741 mmHg 93%
    06:00 +18°C° 0 mm 3 mps 741 mmHg 87%
    07:00 +18°C° 0 mm 3 mps 742 mmHg 80%
    08:00 +19°C° 0 mm 4 mps 742 mmHg 74%
    09:00 +20°C° 0 mm 4 mps 742 mmHg 69%
    10:00 +20°C° 0 mm 4 mps 742 mmHg 64%
    11:00 +21°C° 0 mm 4 mps 742 mmHg 59%
    12:00 +21°C° 0 mm 4 mps 742 mmHg 56%
    13:00 +21°C° 0 mm 4 mps 742 mmHg 53%
    14:00 +21°C° 0 mm 4 mps 742 mmHg 50%
    15:00 +21°C° 0 mm 4 mps 742 mmHg 50%
    16:00 +20°C° 0 mm 4 mps 742 mmHg 51%
    17:00 +20°C° 0 mm 4 mps 742 mmHg 51%
    18:00 +18°C° 0 mm 4 mps 742 mmHg 57%
    19:00 +16°C° 0 mm 3 mps 742 mmHg 64%
    20:00 +14°C° 0 mm 2 mps 742 mmHg 70%
    21:00 +13°C° 0 mm 2 mps 742 mmHg 74%
    22:00 +12°C° 0 mm 2 mps 742 mmHg 78%
    23:00 +10°C° 0 mm 1 mps 743 mmHg 82%
    Show more